Weather History for TJNR - August, 2013

Change the Weather History Date:

Friday, August 30, 2013

  Actual Average Record
Temperature  
Mean Temperature 84 °F -  
Max Temperature 89 °F 86 °F 89 °F (1998)
Min Temperature 80 °F 74 °F 75 °F (2006)
Cooling Degree Days 20    
Growing Degree Days 34 (Base 50)    
Moisture  
Dew Point 78 °F    
Average Humidity 82    
Maximum Humidity 94    
Minimum Humidity 62    
Precipitation  
Precipitation 0.14 in - - ()
Sea Level Pressure  
Sea Level Pressure 30.01 in    
Wind  
Wind Speed 5 mph (ESE)    
Max Wind Speed 13 mph    
Max Gust Speed 18 mph    
Visibility 9 miles    
Events Rain    
Averages and records for this station are not official NWS values.
T = Trace of Precipitation, MM = Missing Value Source: NWS Daily Summary

Daily Weather History Graph

Daily Weather History Graph

Search for Another Location

Airport or City:

Trip Planner

Search our weather history database for the weather conditions in past years. The results will help you decide how hot, cold, wet, or windy it might be!

Date:

Astronomy

Aug. 30, 2013 Rise Set
Actual Time 6:07 AM AST 6:38 PM AST
Civil Twilight 5:45 AM AST 7:00 PM AST
Nautical Twilight 5:19 AM AST 7:26 PM AST
Astronomical Twilight 4:53 AM AST 7:52 PM AST
Moon 1:08 AM AST (8/30) 2:26 PM AST (8/30)
Length of Visible Light 13h 14m
Length of Day
12h 30m
Waning Crescent, 29% of the Moon is Illuminated
Aug 30
Waning Crescent
Sep 5
New
Sep 12
First Quarter
Sep 19
Full
Sep 26
Last Quarter

Hourly Weather History & Observations

Time (AST) Temp. Heat Index Dew Point Humidity Pressure Visibility Wind Dir Wind Speed Gust Speed Precip Events Conditions
12:53 AM 81.0 °F 87.9 °F 77.0 °F 88% 30.01 in 10.0 mi South 3.5 mph - N/A   Partly Cloudy
1:53 AM 81.0 °F 87.9 °F 77.0 °F 88% 29.99 in 10.0 mi SE 4.6 mph - N/A   Clear
2:53 AM 81.0 °F 87.9 °F 77.0 °F 88% 29.98 in 10.0 mi Calm Calm - N/A   Clear
3:53 AM 81.0 °F 87.3 °F 75.9 °F 85% 29.98 in 10.0 mi Calm Calm - N/A   Clear
4:53 AM 80.1 °F 85.8 °F 77.0 °F 90% 29.98 in 10.0 mi Calm Calm - N/A   Mostly Cloudy
5:53 AM 81.0 °F 87.9 °F 77.0 °F 88% 30.00 in 10.0 mi SSE 4.6 mph - N/A   Clear
6:53 AM 82.0 °F 91.0 °F 78.1 °F 88% 30.01 in 10.0 mi SE 8.1 mph - N/A   Clear
7:53 AM 84.9 °F 97.5 °F 79.0 °F 82% 30.03 in 10.0 mi ESE 6.9 mph - N/A   Partly Cloudy
8:53 AM 86.0 °F 96.9 °F 77.0 °F 74% 30.03 in 10.0 mi ESE 6.9 mph - N/A   Clear
9:53 AM 88.0 °F 101.3 °F 78.1 °F 72% 30.04 in 10.0 mi SE 11.5 mph - N/A   Partly Cloudy
10:16 AM 87.8 °F 99.7 °F 77.0 °F 70% 30.03 in 10.0 mi ESE 12.7 mph - N/A   Mostly Cloudy
10:42 AM 89.6 °F 99.8 °F 75.2 °F 62% 30.04 in 10.0 mi SE 8.1 mph - N/A   Mostly Cloudy
10:53 AM 89.1 °F 100.2 °F 75.9 °F 65% 30.04 in 10.0 mi SE 11.5 mph - N/A   Scattered Clouds
11:37 AM 89.6 °F 104.7 °F 78.8 °F 70% 30.03 in 10.0 mi East 11.5 mph - N/A   Mostly Cloudy
11:53 AM 89.1 °F 103.2 °F 78.1 °F 70% 30.02 in 10.0 mi East 12.7 mph - N/A   Mostly Cloudy
12:16 PM 87.8 °F 99.7 °F 77.0 °F 70% 30.02 in 10.0 mi ESE 11.5 mph 17.3 mph N/A   Mostly Cloudy
12:53 PM 82.9 °F 92.8 °F 78.1 °F 85% 30.01 in 2.5 mi SSE 9.2 mph 18.4 mph 0.05 in Rain Light Rain
12:55 PM 82.4 °F 92.4 °F 78.8 °F 89% 30.01 in 1.8 mi SE 8.1 mph 18.4 mph 0.03 in Rain Heavy Rain
1:02 PM 82.4 °F 92.4 °F 78.8 °F 89% 30.02 in 2.0 mi South 3.5 mph - 0.05 in Rain Light Rain
1:10 PM 82.4 °F 92.4 °F 78.8 °F 89% 30.01 in 10.0 mi SW 3.5 mph - 0.05 in Rain Light Rain
1:39 PM 82.4 °F 92.4 °F 78.8 °F 89% 30.00 in 10.0 mi Calm Calm - 0.05 in   Mostly Cloudy
2:53 PM 81.0 °F 89.2 °F 79.0 °F 94% 29.99 in 10.0 mi North 3.5 mph - 0.09 in   Partly Cloudy
3:53 PM 87.1 °F 101.5 °F 79.0 °F 77% 29.99 in 10.0 mi Variable 4.6 mph - N/A   Scattered Clouds
4:53 PM 84.9 °F 96.6 °F 78.1 °F 80% 29.98 in 10.0 mi ESE 6.9 mph - N/A   Clear
5:53 PM 84.0 °F 94.8 °F 78.1 °F 82% 29.99 in 10.0 mi East 4.6 mph - N/A   Clear
6:53 PM 82.9 °F 93.8 °F 79.0 °F 88% 29.99 in 10.0 mi East 5.8 mph - N/A   Partly Cloudy
7:53 PM 82.9 °F 92.8 °F 78.1 °F 85% 30.01 in 10.0 mi ESE 4.6 mph - N/A   Partly Cloudy
8:53 PM 82.9 °F 92.8 °F 78.1 °F 85% 30.02 in 10.0 mi East 3.5 mph - N/A   Clear
9:53 PM 82.9 °F 92.8 °F 78.1 °F 85% 30.04 in 10.0 mi East 3.5 mph - N/A   Partly Cloudy
10:48 PM 82.4 °F 92.4 °F 78.8 °F 89% 30.04 in 10.0 mi ENE 5.8 mph - N/A   Mostly Cloudy
10:53 PM 82.9 °F 92.8 °F 78.1 °F 85% 30.04 in 10.0 mi ENE 6.9 mph - N/A   Scattered Clouds
11:53 PM 82.9 °F 92.8 °F 78.1 °F 85% 30.02 in 10.0 mi Calm Calm - N/A   Partly Cloudy